Wind_Speed
14 15 19 21 26 26 31 28 29 31 34 38 40 48 44 49 47 52 54 57 66 70 74 78 80 73 74 75 79 76 65 68 71 70 72 73 72 73 71 69 70 62 62 73 75 78 73
16 17 20 25 25 29 28 27 30 37 41 45 49 46 50 56 63 63 59 63 71 77 89 93 93 81 78 78 76 78 75 73 78 72 72 75 83 89 80 78 79 76 74 67 75 75 75
15 18 22 26 26 29 33 34 38 43 47 49 54 57 59 60 57 61 64 74 78 88 96 103 98 87 85 84 81 78 83 82 82 82 80 83 87 93 93 95 89 84 83 81 71 67 76
15 19 24 29 28 32 37 40 43 46 51 54 61 64 64 61 58 62 68 82 90 96 106 106 97 94 90 92 89 89 91 92 90 91 94 95 97 101 100 97 95 95 94 85 67 77 75
16 21 26 29 32 36 38 44 47 51 55 60 63 63 60 62 64 69 76 86 100 105 112 113 108 104 108 102 99 98 98 97 98 98 101 102 107 107 105 103 104 101 92 82 75 84 90
21 25 27 33 37 40 44 47 51 53 59 65 62 66 68 63 66 77 84 89 100 113 120 119 112 124 113 109 106 107 108 104 103 104 108 113 117 117 113 105 104 101 104 96 94 95 100
27 26 29 34 40 46 50 50 55 61 62 65 68 70 71 74 74 84 92 99 108 117 120 116 113 124 112 112 119 116 113 109 106 106 111 112 114 110 106 110 111 108 108 106 99 100 109
28 29 34 38 44 49 54 60 64 67 64 70 75 79 77 85 88 96 101 110 116 126 126 131 132 128 123 114 112 111 109 105 102 101 105 107 108 105 109 109 112 111 112 111 105 104 115
30 32 37 42 46 55 60 65 69 73 76 76 83 86 88 90 94 104 111 120 126 133 144 143 135 130 120 113 109 103 95 93 92 89 94 94 85 93 97 99 105 105 104 107 106 107 116
33 37 42 48 54 57 64 67 69 73 80 84 86 88 93 95 103 109 119 126 139 139 151 148 138 130 118 106 99 90 87 80 82 82 85 86 88 95 93 91 94 97 94 94 96 111 98
38 40 45 51 56 59 63 67 74 81 81 87 88 92 99 103 107 115 124 133 145 148 157 149 140 127 116 100 89 84 82 81 78 72 71 76 79 84 82 83 91 89 90 91 91 93 95
39 40 46 54 56 60 67 71 77 81 87 92 92 98 99 104 116 124 131 141 151 160 152 147 134 121 104 93 90 87 78 71 62 61 64 69 72 72 72 76 76 77 84 86 88 89 88
41 44 48 56 61 65 70 73 80 84 87 93 95 102 107 110 120 130 140 149 160 156 151 138 121 106 95 90 84 74 65 62 55 56 57 59 61 62 64 65 67 69 74 78 83 79 62
45 49 52 61 64 70 73 84 85 87 89 97 94 108 113 115 127 135 145 162 162 156 140 126 111 98 95 85 73 67 60 54 50 46 51 48 53 52 55 56 54 58 64 69 71 64 61
49 51 55 64 69 71 81 84 86 89 94 92 106 114 117 124 131 140 151 161 169 160 136 116 103 97 88 77 70 58 54 46 45 39 40 40 42 43 46 47 49 50 54 62 64 66 73
52 53 59 68 76 73 84 84 88 92 92 97 112 114 120 132 134 145 159 166 174 153 129 114 107 95 80 71 62 56 49 43 39 36 32 31 32 36 39 46 49 47 49 51 55 64 70
52 56 66 74 77 77 85 88 91 90 91 105 118 121 130 136 141 152 162 171 169 145 123 112 105 90 78 68 59 51 43 38 33 29 24 24 28 30 36 40 42 42 43 46 54 61 66
57 63 71 75 75 79 89 92 96 97 94 108 124 127 138 138 144 158 167 174 159 136 118 112 102 86 77 63 54 48 38 33 27 23 20 20 24 27 28 34 34 40 40 43 50 58 64
61 66 74 75 76 85 93 94 98 100 101 110 125 131 138 143 148 161 171 172 149 131 117 109 93 85 72 60 49 44 34 28 24 21 17 17 21 22 26 29 35 39 39 41 47 56 62
64 70 75 75 80 90 98 96 99 102 109 112 128 132 137 146 152 166 175 165 143 127 114 109 90 81 70 61 47 39 30 23 20 17 15 15 19 21 21 27 35 40 41 46 51 57 60
68 75 76 79 85 99 100 99 100 105 113 119 132 135 141 150 154 166 171 165 140 120 116 102 89 75 64 57 47 38 27 21 17 14 13 14 19 19 23 33 41 41 42 47 54 59 58
71 77 80 81 86 99 103 102 104 105 120 126 133 136 139 151 160 174 169 160 134 123 113 101 87 73 62 52 43 36 25 19 12 10 13 14 17 22 27 33 37 38 42 45 47 47 50
74 79 83 84 94 102 106 104 108 112 123 130 136 140 145 153 164 173 169 154 130 119 115 97 85 72 61 52 40 31 23 16 12 9 11 16 19 23 28 33 38 39 42 45 45 47 51
76 80 83 90 100 104 107 106 113 115 124 133 138 143 149 154 165 175 171 144 128 119 113 94 83 70 59 47 35 28 22 14 10 9 11 18 18 24 28 33 40 41 40 40 42 45 45
79 81 86 95 99 106 106 107 114 118 127 137 140 146 151 156 167 175 170 139 127 120 113 93 82 69 58 46 34 26 20 15 11 9 10 17 18 25 31 35 41 42 39 39 48 50 51
79 81 90 96 103 104 106 112 114 121 129 135 141 147 152 158 169 172 164 139 127 121 113 90 78 65 58 45 34 25 18 14 10 9 10 16 20 28 32 34 38 41 38 42 49 55 56
83 89 91 98 106 106 109 115 115 126 129 135 139 148 152 159 170 170 159 139 127 120 112 89 78 66 56 44 32 25 17 14 6 8 11 14 24 30 35 36 38 41 42 45 50 52 53
88 95 95 102 108 107 111 115 119 125 130 134 142 149 155 159 171 167 148 135 125 117 107 87 77 65 54 43 34 25 17 12 8 7 14 18 25 31 35 35 38 38 43 46 49 51 49
92 94 99 106 106 109 114 116 122 127 133 136 144 149 157 162 167 161 138 128 122 114 104 82 72 60 50 42 33 25 17 12 7 6 13 18 23 30 36 41 42 43 45 48 49 49 46
Wind_Direction
315 320 325 325 328 329 332 331 327 329 328 325 325 323 323 324 318 312 315 314 322 320 320 321 319 314 310 304 295 296 287 286 282 278 275 273 273 270 268 262 263 266 256 245 244 247 249
302 309 317 322 326 330 327 326 325 323 322 321 323 329 331 321 318 314 315 314 318 320 323 322 320 314 310 301 298 293 293 286 279 283 279 276 270 270 272 268 265 263 256 249 243 245 247
297 309 313 318 320 326 329 326 323 319 323 320 325 329 323 321 317 316 315 318 321 326 321 321 317 312 313 306 307 299 293 289 283 281 279 276 271 269 268 266 265 260 256 253 247 249 248
299 313 319 322 319 321 322 321 319 321 325 323 324 324 323 317 310 311 315 326 328 326 326 320 320 316 313 311 305 299 294 291 285 280 280 279 274 274 271 269 265 262 256 245 256 252 250
310 320 322 327 322 322 320 325 324 326 326 325 330 324 322 322 316 320 322 327 329 325 324 326 325 321 318 312 304 298 293 291 288 283 281 281 278 275 273 270 265 261 260 260 252 252 247
309 313 321 329 330 327 326 324 321 322 326 332 323 328 319 318 319 321 328 326 321 324 326 328 325 325 316 310 305 300 297 292 286 280 276 277 274 272 272 272 271 269 261 250 246 246 247
312 316 320 324 324 325 324 320 319 322 326 329 330 325 320 319 320 322 323 322 326 327 328 325 322 323 314 308 306 302 295 291 285 279 275 272 268 266 267 264 261 257 255 251 249 249 250
318 316 317 318 320 320 320 320 321 319 324 321 326 324 323 323 320 323 323 326 326 332 331 327 325 320 316 310 304 299 295 289 284 279 275 268 266 266 262 260 260 257 255 251 247 247 249
317 318 317 317 315 317 318 317 318 317 324 321 322 323 322 323 319 324 325 326 331 333 330 327 325 321 316 310 304 298 293 287 283 278 275 271 270 264 260 257 257 256 254 254 251 244 245
314 315 318 321 320 317 317 316 317 322 325 320 321 325 323 324 323 322 325 328 332 331 332 329 326 322 316 311 306 301 295 288 280 275 273 272 266 262 259 255 254 253 251 249 247 249 244
317 315 319 321 318 318 317 316 319 325 322 322 327 326 325 327 324 324 326 329 331 331 329 330 327 322 316 312 307 301 294 289 285 280 274 266 261 259 257 254 249 250 245 245 241 242 244
320 320 322 319 318 315 316 318 318 320 322 327 327 329 328 326 327 326 329 331 331 330 331 330 325 321 316 314 312 307 301 295 289 280 268 261 261 259 254 252 252 248 241 240 241 240 241
321 315 318 320 319 317 316 317 317 324 322 329 326 327 328 326 327 328 331 332 332 332 333 328 324 321 317 315 312 307 303 299 291 281 270 269 262 258 256 252 249 245 241 236 237 238 241
321 318 319 318 319 320 321 323 325 326 329 329 331 331 331 327 327 329 331 334 334 336 332 329 327 325 322 318 315 312 309 303 291 281 277 268 262 256 253 251 249 244 240 236 236 234 232
322 318 318 319 319 321 325 331 328 326 329 331 334 333 332 330 330 333 334 338 337 337 332 331 330 329 325 323 320 317 311 302 292 286 272 266 259 252 248 243 242 237 230 226 224 222 222
321 319 317 320 324 320 328 332 330 330 332 333 335 334 332 332 333 333 336 338 338 336 333 334 333 332 329 326 323 318 312 303 297 284 273 262 255 247 239 236 236 232 229 225 220 217 221
323 319 318 324 324 321 326 332 332 332 330 333 338 336 335 332 334 334 337 338 339 336 336 336 336 334 332 330 326 318 314 307 300 288 276 262 248 240 237 234 231 226 221 214 211 209 217
321 317 323 325 323 321 327 334 331 332 329 333 335 337 335 334 336 336 340 340 339 338 339 339 338 337 334 333 326 321 319 312 301 288 274 251 235 230 228 228 219 218 214 211 207 203 210
317 321 324 323 321 323 328 334 332 332 329 332 336 338 334 334 336 338 340 341 339 340 340 341 340 339 336 334 332 328 322 315 303 290 274 247 230 221 215 214 209 208 200 199 200 199 204
316 321 323 324 322 324 330 332 332 331 330 329 336 336 335 336 335 339 341 341 341 341 343 342 343 341 337 335 338 331 327 312 302 289 266 245 223 213 202 199 204 200 194 190 189 198 206
318 323 322 320 322 325 330 332 332 330 332 333 339 335 336 337 336 339 343 341 341 344 344 344 344 341 339 338 337 332 330 314 304 301 266 238 215 197 192 193 198 197 189 189 189 196 202
320 322 321 321 319 327 331 331 329 332 333 335 337 335 336 338 337 340 343 341 342 344 346 345 344 342 341 340 336 334 328 317 304 289 263 237 210 194 192 193 198 193 187 188 193 197 199
321 322 321 320 323 327 331 330 330 331 332 335 336 335 335 337 339 342 342 342 343 346 346 346 345 343 343 341 340 333 328 318 295 267 257 236 211 198 192 189 189 196 191 189 187 191 193
322 320 319 318 323 327 333 330 329 331 330 336 335 335 336 336 339 341 343 342 344 347 346 346 345 343 343 342 339 332 325 315 290 264 228 235 222 199 188 186 184 195 190 186 179 181 182
323 320 317 321 324 329 331 329 331 331 333 335 335 335 335 335 340 340 341 343 345 347 346 347 346 344 345 343 342 331 322 318 301 251 215 224 217 192 188 185 183 191 186 178 172 174 173
321 315 320 321 325 330 330 331 330 330 335 334 336 335 334 336 339 341 342 343 345 346 345 346 346 344 344 343 340 335 330 325 312 259 207 205 206 187 187 184 182 185 183 176 173 174 171
317 317 318 321 323 328 330 331 329 333 334 333 333 335 334 336 337 340 342 343 345 345 344 345 345 345 345 343 343 338 339 331 331 235 213 192 189 186 183 183 180 181 181 175 174 176 175
317 317 316 320 323 326 329 329 329 332 334 333 334 334 334 336 338 340 340 343 345 344 344 344 344 344 345 343 344 343 346 336 338 225 202 189 184 181 183 174 173 177 177 176 173 175 172
316 318 317 320 323 325 328 328 330 331 333 332 334 334 335 338 338 341 340 343 344 343 343 344 344 344 343 342 343 342 348 335 344 224 203 190 183 178 178 168 173 173 175 173 171 169 163
Height
10787 10785 10783 10781 10778 10775 10771 10768 10765 10762 10758 10753 10748 10744 10738 10733 10727 10720 10713 10705 10696 10686 10677 10669 10662 10655 10650 10638 10619 10615 10620 10609 10601 10597 10591 10586 10585 10579 10584 10583 10582 10595 10595 10594 10599 10602 10612
10784 10782 10780 10777 10774 10771 10767 10764 10760 10755 10750 10745 10740 10734 10730 10723 10715 10706 10698 10690 10680 10668 10655 10646 10639 10633 10628 10614 10605 10594 10589 10583 10572 10568 10566 10560 10557 10548 10558 10560 10557 10565 10564 10575 10580 10587 10590
10780 10779 10777 10774 10770 10766 10763 10759 10753 10748 10742 10735 10730 10725 10719 10713 10704 10693 10683 10671 10663 10649 10636 10624 10611 10604 10600 10582 10575 10569 10562 10552 10545 10540 10538 10530 10521 10515 10523 10521 10533 10535 10534 10543 10561 10567 10569
10777 10776 10772 10768 10764 10761 10756 10752 10747 10741 10735 10728 10721 10715 10708 10700 10691 10681 10670 10655 10639 10628 10612 10597 10586 10574 10565 10552 10546 10534 10527 10521 10513 10505 10499 10496 10487 10477 10484 10486 10496 10494 10495 10519 10558 10541 10545
10774 10771 10767 10763 10759 10755 10750 10745 10739 10734 10727 10719 10712 10702 10693 10686 10677 10669 10656 10640 10624 10608 10589 10570 10555 10542 10527 10517 10507 10497 10488 10482 10477 10470 10462 10456 10444 10441 10443 10449 10450 10454 10475 10498 10522 10511 10499
10769 10766 10763 10759 10753 10748 10743 10737 10731 10725 10718 10709 10701 10689 10678 10668 10658 10648 10636 10625 10610 10592 10562 10538 10525 10511 10499 10480 10469 10457 10446 10444 10441 10432 10419 10411 10399 10396 10402 10413 10413 10430 10422 10439 10454 10466 10452
10764 10761 10757 10752 10747 10741 10734 10727 10721 10713 10707 10696 10686 10677 10663 10649 10637 10626 10616 10606 10591 10571 10535 10513 10498 10485 10467 10445 10421 10414 10402 10393 10387 10381 10369 10358 10342 10360 10376 10365 10359 10372 10380 10392 10416 10433 10420
10758 10755 10750 10746 10740 10733 10725 10717 10710 10702 10694 10686 10672 10660 10649 10631 10618 10602 10590 10576 10559 10536 10516 10486 10471 10449 10426 10407 10389 10368 10349 10338 10334 10328 10308 10309 10305 10319 10315 10320 10316 10327 10337 10353 10378 10391 10381
10752 10748 10744 10739 10733 10725 10716 10708 10699 10690 10681 10671 10657 10643 10630 10615 10597 10579 10563 10544 10520 10499 10476 10451 10436 10405 10383 10363 10337 10321 10313 10296 10285 10279 10261 10266 10287 10267 10268 10276 10275 10287 10302 10316 10328 10342 10336
10746 10742 10737 10732 10725 10716 10706 10696 10686 10676 10666 10654 10641 10626 10609 10599 10579 10559 10537 10513 10485 10466 10443 10409 10385 10351 10337 10320 10294 10276 10262 10256 10245 10239 10231 10232 10229 10217 10225 10239 10246 10248 10266 10280 10293 10283 10312
10739 10735 10730 10723 10715 10707 10696 10686 10674 10661 10649 10638 10621 10606 10591 10573 10560 10537 10511 10489 10461 10429 10400 10374 10337 10315 10289 10270 10255 10244 10228 10213 10205 10200 10197 10187 10184 10180 10193 10200 10199 10216 10235 10242 10254 10264 10273
10732 10727 10721 10713 10705 10696 10686 10675 10662 10648 10632 10619 10604 10589 10572 10552 10529 10506 10485 10460 10431 10406 10372 10334 10303 10274 10257 10235 10217 10197 10185 10173 10171 10163 10155 10153 10150 10154 10160 10163 10176 10190 10197 10210 10225 10236 10245
10724 10718 10711 10704 10695 10686 10675 10663 10650 10636 10618 10599 10587 10569 10550 10531 10510 10485 10458 10436 10404 10374 10332 10301 10278 10252 10226 10203 10187 10167 10157 10144 10138 10128 10126 10126 10128 10132 10135 10142 10150 10161 10170 10184 10194 10211 10247
10715 10708 10700 10694 10685 10674 10664 10651 10637 10620 10603 10586 10570 10553 10531 10508 10485 10463 10435 10403 10370 10337 10301 10274 10240 10221 10193 10175 10158 10141 10130 10120 10111 10107 10100 10105 10104 10112 10117 10123 10133 10140 10148 10162 10178 10210 10231
10706 10698 10690 10683 10673 10662 10651 10638 10622 10604 10589 10571 10552 10532 10511 10489 10465 10439 10410 10372 10337 10299 10270 10241 10220 10193 10170 10147 10130 10123 10108 10100 10090 10090 10086 10086 10087 10091 10100 10106 10111 10120 10131 10142 10164 10188 10191
10695 10688 10680 10670 10660 10649 10639 10623 10607 10590 10573 10557 10537 10515 10493 10465 10441 10415 10383 10350 10311 10272 10242 10212 10184 10165 10146 10130 10116 10099 10090 10081 10076 10073 10072 10073 10075 10078 10083 10088 10094 10106 10118 10136 10154 10170 10182
10685 10677 10669 10659 10648 10637 10624 10608 10592 10576 10556 10540 10520 10493 10470 10444 10419 10386 10358 10322 10292 10248 10221 10190 10165 10142 10124 10113 10096 10083 10075 10067 10062 10060 10061 10062 10063 10068 10072 10079 10088 10100 10111 10125 10138 10155 10172
10675 10666 10656 10645 10634 10622 10609 10593 10577 10560 10544 10523 10503 10478 10450 10424 10402 10372 10339 10298 10263 10231 10203 10170 10145 10123 10108 10097 10081 10069 10063 10056 10052 10049 10051 10052 10054 10059 10067 10073 10084 10092 10105 10119 10132 10147 10161
10664 10654 10644 10632 10620 10606 10593 10578 10561 10544 10529 10513 10490 10464 10429 10403 10381 10356 10320 10285 10238 10212 10184 10159 10133 10111 10094 10084 10072 10060 10053 10047 10043 10042 10045 10047 10049 10054 10061 10070 10076 10088 10100 10114 10130 10142 10153
10652 10642 10631 10619 10605 10592 10579 10563 10547 10529 10513 10494 10473 10447 10421 10390 10354 10323 10293 10262 10229 10197 10170 10140 10121 10100 10084 10070 10064 10053 10046 10039 10036 10037 10039 10041 10045 10049 10059 10067 10072 10081 10095 10107 10122 10132 10145
10639 10629 10617 10604 10590 10578 10563 10548 10534 10516 10498 10479 10458 10430 10401 10376 10353 10318 10282 10242 10209 10187 10155 10135 10109 10094 10081 10067 10056 10047 10041 10034 10031 10033 10034 10038 10041 10047 10053 10058 10061 10073 10088 10101 10113 10123 10138
10625 10615 10603 10590 10577 10564 10549 10533 10518 10503 10480 10461 10438 10416 10392 10360 10326 10298 10262 10229 10200 10167 10151 10123 10102 10087 10074 10064 10053 10043 10037 10032 10028 10028 10029 10035 10039 10045 10049 10056 10062 10074 10087 10098 10112 10126 10135
10613 10602 10590 10577 10564 10549 10534 10518 10502 10486 10467 10445 10421 10393 10371 10340 10313 10284 10250 10212 10189 10161 10134 10116 10098 10081 10068 10056 10049 10041 10034 10031 10026 10026 10028 10031 10036 10042 10048 10055 10062 10071 10082 10093 10104 10117 10130
10601 10590 10577 10564 10549 10535 10521 10505 10488 10469 10450 10428 10407 10381 10358 10327 10296 10264 10236 10204 10178 10155 10133 10112 10093 10078 10065 10056 10047 10038 10032 10028 10025 10025 10029 10028 10035 10038 10047 10054 10063 10067 10079 10090 10101 10112 10126
10589 10578 10565 10552 10537 10524 10509 10494 10475 10455 10435 10412 10387 10365 10341 10314 10289 10256 10225 10193 10168 10147 10128 10106 10088 10074 10063 10052 10045 10038 10031 10028 10025 10026 10028 10029 10033 10038 10044 10051 10060 10067 10079 10090 10101 10112 10125
10576 10565 10553 10539 10526 10512 10498 10482 10462 10443 10423 10400 10375 10349 10324 10302 10277 10247 10216 10186 10161 10141 10124 10106 10091 10075 10062 10052 10043 10037 10032 10027 10027 10023 10026 10029 10033 10038 10045 10053 10063 10071 10080 10090 10101 10111 10122
10564 10552 10540 10526 10513 10501 10486 10469 10452 10433 10412 10389 10366 10342 10317 10294 10265 10238 10211 10180 10156 10137 10119 10099 10085 10070 10060 10052 10043 10037 10033 10027 10027 10026 10024 10027 10034 10039 10046 10053 10063 10071 10081 10092 10104 10117 10126
10552 10540 10527 10514 10502 10489 10474 10458 10441 10422 10401 10379 10359 10330 10309 10283 10257 10232 10201 10176 10153 10136 10121 10100 10083 10068 10058 10050 10042 10036 10033 10028 10027 10028 10028 10030 10035 10041 10048 10056 10064 10074 10083 10094 10105 10117 10130
10539 10528 10515 10502 10490 10478 10463 10447 10430 10410 10390 10369 10346 10323 10300 10279 10250 10223 10195 10170 10148 10131 10116 10101 10085 10071 10059 10050 10042 10036 10033 10029 10027 10029 10030 10032 10037 10043 10049 10056 10064 10075 10085 10095 10105 10117 10129